Probability
0 0 0 0 0 0 0 0 0 0 0 0 0 0 0 0 0 0 0 0 0 0 0 0 0 0 0 0 0 0 0 0 0 0 0 0 0 0
0 0 0 0 0 0 0 0 0 0 0 0 0 0 0 0 0 0 0 0 0 0 0 0 0 0 0 0 0 0 0 0 0 0 0 0 0 0
0 0 0 0 0 0 0 0 0 0 0 0 0 0 0 0 0 0 0 0 0 0 0 0 0 0 0 0 0 0 0 0 0 0 0 0 0 0
0 0 0 0 0 0 0 0 0 0 0 0 0 0 0 0 0 0 0 0 0 0 0 0 0 0 0 0 0 0 0 0 0 0 0 0 0 0
0 0 0 0 0 0 0 0 0 0 0 0 0 0 0 0 0 0 0 0 0 0 0 0 0 0 0 0 0 0 0 0 0 0 0 0 0 0
0 0 0 0 0 0 0 0 0 0 0 0 0 0 0 0 0 0 0 0 0 0 0 0 0 0 0 0 0 0 0 0 0 0 0 0 0 0
0 0 0 0 0 0 0 0 0 0 0 0 0 0 0 0 0 0 0 0 0 0 0 0 0 0 0 0 0 0 0 0 0 0 0 0 0 0
0 0 0 0 0 0 0 0 0 0 0 0 0 0 0 0 0 0 0 0 0 0 0 0 0 0 0 0 0 0 0 0 0 0 0 0 0 0
0 0 0 0 0 0 0 0 0 0 0 0 0 0 0 0 0 0 0 0 0 0 0 0 0 0 0 0 0 0 0 0 0 0 0 0 0 0
0 0 0 0 0 0 0 0 0 0 0 0 0 0 0 0 0 0 0 0 0 0 0 0 0 0 0 0 0 0 0 0 0 0 0 0 0 0
0 0 0 0 0 0 0 0 0 0 0 0 0 0 0 0 0 0 0 0 0 0 0 0 0 0 0 0 0 0 0 0 0 0 0 0 0 0
0 0 0 0 0 0 0 0 0 0 0 0 0 0 0 0 0 0 0 0 0 0 0 0 0 0 0 0 0 0 0 0 0 0 0 0 0 0
0 0 0 0 0 0 0 0 0 0 0 0 0 0 0 0 0 0 0 0 0 0 0 0 0 0 0 0 0 0 0 0 0 0 0 0 0 0
0 0 0 0 0 0 0 0 0 0 0 0 0 0 0 0 0 0 0 0 0 0 0 0 0 0 0 0 0 0 0 0 0 0 0 0 0 0
0 0 0 0 0 0 0 0 0 0 0 0 0 0 0 0 0 0 0 0 0 0 0 0 0 0 0 0 0 0 0 0 0 0 0 0 0 0
0 0 0 0 0 0 0 0 0 0 0 0 0 0 0 0 0 0 0 0 0 0 0 0 0 0 0 0 0 0 0 0 0 0 0 0 0 0
0 0 0 0 0 0 0 0 0 0 0 0 0 0 0 0 0 0 0 0 0 0 0 0 0 0 0 0 0 0 0 0 0 0 0 0 0 0
0 0 0 0 0 0 0 0 0 0 0 0 0 0 0 0 0 0 0 0 0 0 0 0 0 0 0 0 0 0 0 0 0 0 0 0 0 0
0 0 0 0 0 0 0 0 0 0 0 0 0 0 0 0 0 0 0 0 0 0 0 0 0 0 0 0 0 0 0 0 0 0 0 0 0 0
0 0 0 0 0 0 0 0 0 0 0 0 0 0 0 0 0 0 0 0 0 0 0 0 0 0 0 0 0 0 0 0 0 0 0 0 0 0
0 0 0 0 0 0 0 0 0 0 0 0 0 0 0 0 0 0 0 0 0 0 0 0 0 0 0 0 0 0 0 0 0 0 0 0 0 0
0 0 0 0 0 0 0 0 0 0 0 0 0 0 0 0 0 0 0 0 0 0 0 0 0 0 0 0 0 0 0 0 0 0 0 0 0 0
0 0 0 0 0 0 0 0 0 0 0 0 0 0 0 0 0 0 0 0 0 0 0 0 0 0 0 0 0 0 0 0 0 0 0 0 0 0
Wind_Speed
3 3 3 2 2 3 3 4 4 4 4 3 2 2 1 1 1 2 2 2 4 4 5 5 5 6 6 7 7 7 7 7 8 8 8 8 9 9
2 3 3 2 2 2 3 3 4 4 4 2 2 2 2 2 2 3 3 2 3 4 4 5 5 5 6 6 7 7 8 8 8 8 8 8 9 9
3 4 3 3 3 2 2 3 3 4 5 3 2 3 4 4 3 3 3 3 2 3 4 5 4 5 6 6 6 7 7 7 8 8 8 8 9 10
4 4 4 3 4 3 3 3 3 4 4 5 3 3 4 4 4 4 3 3 3 3 4 5 5 5 6 6 6 7 7 7 7 7 8 9 9 10
4 5 5 4 5 4 4 4 3 3 4 4 4 3 3 3 4 4 4 3 3 3 4 5 5 6 7 7 7 7 7 7 7 8 8 9 9 10
5 5 5 5 5 5 4 5 4 4 4 4 4 3 3 3 3 3 3 3 3 3 4 4 5 6 6 7 6 6 6 7 8 8 8 9 9 10
4 5 5 5 5 5 4 5 5 4 4 4 4 4 3 3 4 3 4 3 4 3 3 3 3 4 4 5 6 6 7 7 8 8 9 9 9 10
5 5 4 5 5 6 7 7 7 6 6 5 5 6 6 5 4 4 3 4 4 2 3 4 4 4 4 4 5 7 8 8 8 9 9 9 10 10
5 5 4 4 5 5 6 7 7 9 9 8 8 8 7 6 6 6 6 5 5 3 4 5 4 5 4 4 7 8 7 8 8 9 10 10 10 10
5 5 5 5 5 5 5 6 6 7 8 7 8 8 7 6 6 6 6 5 4 4 4 5 4 5 4 4 6 7 7 8 9 9 10 10 10 11
5 5 5 6 5 6 6 6 6 6 6 7 9 8 7 7 6 5 5 4 5 4 4 4 3 4 5 5 4 6 7 8 9 10 10 10 11 11
4 5 6 7 6 6 6 6 7 6 5 5 6 7 7 7 8 8 6 6 4 4 4 4 3 3 4 3 3 4 5 7 9 10 10 10 10 8
4 4 4 6 7 7 8 7 8 7 6 6 5 5 5 5 5 6 6 6 6 5 4 4 4 3 4 4 4 4 5 5 5 6 8 9 10 9
5 4 4 6 8 9 8 8 8 7 5 5 5 5 5 5 4 5 5 6 6 7 6 5 4 4 4 5 5 4 4 4 5 6 5 7 9 10
5 6 7 8 8 8 8 8 7 6 5 5 6 5 4 4 3 3 3 4 5 5 5 6 5 5 5 6 5 5 5 5 5 5 5 5 6 6
5 5 7 7 7 7 7 6 5 6 6 6 5 5 3 3 4 4 4 3 4 4 4 6 6 6 6 7 6 6 5 4 4 5 5 6 6 6
4 4 4 4 5 5 5 5 4 5 5 5 5 5 4 4 4 4 4 4 5 5 4 3 4 4 6 6 6 6 6 6 6 5 5 6 6 6
6 5 5 5 5 5 5 5 5 5 5 5 5 5 5 5 4 4 4 5 6 5 5 4 3 3 3 5 8 7 6 6 5 5 5 6 7 6
6 5 5 5 5 5 5 5 5 5 4 4 5 5 5 5 5 5 5 5 6 5 5 4 4 4 6 7 4 7 6 5 5 5 5 6 7 6
5 5 5 5 5 5 5 5 5 5 4 5 5 5 5 5 5 5 5 6 6 5 5 4 5 5 6 6 5 4 7 6 5 6 5 5 6 7
5 5 5 5 5 5 5 5 5 5 5 5 5 5 5 5 6 6 6 7 6 6 6 6 5 6 4 3 4 5 4 6 7 5 5 5 5 5
5 5 5 5 5 5 5 5 5 5 5 5 5 5 5 5 6 7 6 6 6 6 6 5 3 3 4 5 6 6 5 4 5 8 8 7 5 5
6 6 6 6 5 5 5 5 6 6 5 5 5 5 5 5 6 6 6 6 5 6 5 5 4 4 4 5 5 5 6 5 4 4 5 6 9 10
Wind_Direction
216 217 220 220 230 230 232 227 229 240 240 232 222 217 248 287 326 282 293 340 324 320 320 319 315 313 313 311 310 308 307 304 304 304 299 297 298 300
208 215 229 226 227 230 232 236 239 242 244 232 237 240 250 272 278 275 285 289 288 304 307 307 306 311 315 315 314 312 310 306 302 299 300 301 299 301
214 217 227 227 225 227 232 236 240 240 242 246 250 243 243 258 266 270 272 271 272 282 291 293 297 303 306 307 309 309 308 308 305 302 302 302 301 298
223 224 227 225 226 228 226 228 238 242 243 248 247 245 249 250 260 264 268 272 278 276 277 282 284 293 298 298 300 303 304 305 304 300 299 300 300 301
226 225 228 225 227 223 226 229 233 241 243 242 245 244 252 245 253 262 265 272 281 272 264 270 280 290 291 291 292 296 298 299 300 299 296 297 298 299
232 229 231 230 231 226 226 228 228 230 234 236 240 239 245 251 249 255 266 270 275 279 264 271 275 277 277 278 281 287 291 293 295 297 298 299 298 297
236 236 237 238 242 242 235 230 228 228 232 239 241 240 238 235 240 248 258 271 275 268 273 271 275 273 270 266 266 277 286 289 291 293 295 296 295 294
236 240 241 236 235 237 240 240 238 234 235 240 246 240 243 242 241 245 254 266 271 253 272 275 273 269 270 270 280 284 285 287 288 290 292 292 292 293
242 241 242 241 237 240 237 235 239 240 242 247 249 248 247 241 237 241 243 252 263 267 270 270 265 268 271 273 280 283 285 286 288 288 289 289 290 291
246 246 248 249 245 249 254 250 249 245 242 245 250 254 251 244 238 240 244 256 275 262 251 263 266 269 277 271 270 280 284 286 288 288 288 288 289 290
250 251 251 253 246 249 254 255 258 257 249 247 256 258 257 248 243 236 231 238 262 258 238 252 265 278 277 267 259 265 276 284 287 288 288 288 289 288
249 249 247 252 255 252 256 256 259 263 262 258 255 251 248 239 232 232 229 230 247 255 228 232 252 267 273 259 264 271 272 276 281 284 286 286 287 284
250 252 253 251 259 260 262 259 258 267 265 258 258 254 246 238 232 236 237 232 235 246 227 221 246 247 252 270 271 269 272 279 282 282 280 280 280 279
254 257 257 257 265 265 264 260 259 260 255 253 253 253 246 241 238 240 245 249 248 249 241 227 236 239 252 267 271 271 271 275 278 280 280 279 276 275
257 259 264 264 263 260 254 257 255 248 247 247 250 253 252 251 247 246 250 250 259 258 247 240 236 237 244 255 263 270 278 275 269 272 277 279 278 277
256 255 257 259 258 260 259 253 249 247 245 247 252 257 253 246 245 242 242 238 252 262 251 241 237 236 246 252 255 263 265 262 262 267 274 275 273 269
272 269 263 259 259 259 258 258 255 251 250 248 247 251 251 250 250 245 239 242 247 252 256 247 242 247 252 254 255 256 261 264 263 266 271 273 270 268
265 258 257 257 259 260 262 263 260 256 252 249 248 247 247 250 252 248 243 241 244 248 250 245 232 255 263 258 238 249 258 264 268 267 266 272 276 273
255 253 256 258 260 262 262 261 262 260 255 253 250 248 248 249 250 250 246 245 246 248 248 239 230 238 256 267 246 218 244 262 266 266 262 264 273 279
249 252 256 258 259 259 260 261 261 260 256 253 250 247 244 245 247 247 246 247 248 252 253 245 236 236 246 262 272 258 235 248 258 264 269 271 276 282
254 255 256 257 258 258 259 259 260 260 258 254 251 247 246 246 248 248 247 246 251 253 251 252 247 240 245 251 261 265 256 240 251 257 263 271 277 277
258 258 259 257 256 256 257 258 259 259 258 255 252 248 245 245 247 248 246 248 250 252 259 261 244 235 236 245 257 267 275 271 259 257 255 252 260 264
260 261 261 259 257 255 254 254 257 259 257 256 254 249 244 245 246 247 247 249 251 251 256 259 253 245 246 248 255 262 267 270 273 272 268 256 256 265